Tracking 19817 objects as of 19-Aug-2019
HD Live streaming from Space Station
objects crossing your sky now

CZ-3B DEB

Track CZ-3B DEB now!


NORAD ID: 40169
Int'l Code: 2010-042W
Perigee: 1,177.1 km
Apogee: 40,400.5 km
Inclination: 25.9 °
Period: 742.4 minutes
Semi major axis: 27159 km
RCS: Unknown
Launch date: September 4, 2010
Source: People's Republic of China (PRC)
Launch site: Xichang Space Center, China (XSC)

Note: This is SATELLITE DEBRIS
aabbcc
Your satellite tracking list
Your tracking list is empty




NASA's NSSDC Master Catalog

Two Line Element Set (TLE):
1 40169U 10042W   19229.09314347 -.00000210  00000-0  00000+0 0  9994
2 40169  25.8674 131.4386 7220852  93.0406   4.6379  1.93960257 49406
Source of the keplerian elements: AFSPC